Location: North Evanston
(42.0634°N, 87.6976°W)
Time: 05:54:09
(UTC+00:00)

Explorer 11/Cluster Stage 4 - Pass Details

Date: 19 May 2026
Orbit: 463 x 1173 km, 28.8° (Epoch: 7 June)

Event Time Altitude Azimuth Distance (km) Brightness Sun altitude
Rises 04:43:48 0° 251° (WSW) 3,955 10.2 -26.4°
Reaches altitude 10° 04:47:15 10° 239° (WSW) 2,917 9.3 -26.6°
Enters shadow 04:47:41 11° 237° (WSW) 2,796 9.2 -26.6°
